Zurück zum Katalog

BREEZE-M R/B

AktivHEO
NORAD 39164·ROCKET BODY·🇷🇺 Russia

Gestartet May 14, 2013 von Baikonur Cosmodrome

Loading…

Nächste Überflüge (nächste 24 Stunden)

TLE

AktuellSource: Space-Track

Epoche: Sep 11, 2026, 16:59 UTC

1 39164U 13022B   26254.70811744 -.00000291  00000-0  00000-0 0  9995
2 39164  17.3106 190.1493 5406434 121.6988 302.1384  2.02200203 98459

Verfolge BREEZE-M R/B in Echtzeit mit AllMySat

Download on the App Store